Weather History for KBFM - February, 2014

Change the Weather History Date:

Sunday, February 23, 2014

  Actual Average Record
Temperature  
Mean Temperature 59 °F -  
Max Temperature 63 °F 62 °F 75 °F (2011)
Min Temperature 55 °F 45 °F 34 °F (2002)
Degree Days  
Heating Degree Days 6    
Growing Degree Days 9 (Base 50)    
Moisture  
Dew Point 57 °F    
Average Humidity 92    
Maximum Humidity 97    
Minimum Humidity 74    
Precipitation  
Precipitation 0.68 in - - ()
Sea Level Pressure  
Sea Level Pressure 30.02 in    
Wind  
Wind Speed 3 mph (NE)    
Max Wind Speed 10 mph    
Max Gust Speed -    
Visibility 6 miles    
Events Fog , Rain , Thunderstorm    
Averages and records for this station are not official NWS values.
T = Trace of Precipitation, MM = Missing Value Source: NWS Daily Summary

Daily Weather History Graph

Daily Weather History Graph

Search for Another Location

Airport or City:

Trip Planner

Search our weather history database for the weather conditions in past years. The results will help you decide how hot, cold, wet, or windy it might be!

Date:

Astronomy

Feb. 23, 2014 Rise Set
Actual Time 6:25 AM CST 5:46 PM CST
Civil Twilight 6:00 AM CST 6:10 PM CST
Nautical Twilight 5:32 AM CST 6:38 PM CST
Astronomical Twilight 5:04 AM CST 7:06 PM CST
Moon 1:11 AM CST (2/23) 12:00 PM CST (2/23)
Length of Visible Light 12h 10m
Length of Day
11h 21m
Last Quarter, 38% of the Moon is Illuminated
Feb 23
Last Quarter
Mar 1
New
Mar 8
First Quarter
Mar 16
Full
Mar 23
Last Quarter

Hourly Weather History & Observations

Time (CST) Temp. Dew Point Humidity Pressure Visibility Wind Dir Wind Speed Gust Speed Precip Events Conditions
12:53 AM 55.0 °F 48.0 °F 77% 30.04 in 10.0 mi ESE 3.5 mph - N/A   Partly Cloudy
1:31 AM 57.0 °F 48.9 °F 74% 30.03 in 10.0 mi East 3.5 mph - N/A   Mostly Cloudy
1:53 AM 57.0 °F 48.9 °F 74% 30.02 in 10.0 mi East 4.6 mph - N/A   Overcast
2:42 AM 57.0 °F 51.1 °F 81% 30.02 in 5.0 mi East 3.5 mph - 0.05 in Rain , Thunderstorm Thunderstorms and Rain
2:53 AM 55.0 °F 53.1 °F 93% 30.02 in 2.5 mi Variable 4.6 mph - 0.18 in Rain , Thunderstorm Heavy Thunderstorms and Rain
3:03 AM 55.9 °F 51.1 °F 84% 30.01 in 5.0 mi East 4.6 mph - 0.03 in Rain , Thunderstorm Light Thunderstorms and Rain
3:13 AM 55.0 °F 51.1 °F 86% 30.01 in 9.0 mi NNW 3.5 mph - 0.03 in Rain , Thunderstorm Light Thunderstorms and Rain
3:20 AM 55.0 °F 52.0 °F 89% 30.01 in 10.0 mi Calm Calm - 0.04 in Rain , Thunderstorm Light Rain
3:37 AM 55.0 °F 53.1 °F 93% 29.99 in 10.0 mi Calm Calm - 0.05 in Rain Light Rain
3:53 AM 55.0 °F 53.1 °F 93% 30.01 in 10.0 mi WNW 3.5 mph - 0.05 in Rain , Thunderstorm Light Rain
4:14 AM 55.9 °F 54.0 °F 93% 30.00 in 10.0 mi NNW 3.5 mph - 0.00 in Rain Light Rain
4:53 AM 57.0 °F 54.0 °F 89% 30.01 in 10.0 mi North 4.6 mph - 0.02 in Rain Light Rain
5:53 AM 57.0 °F 54.0 °F 89% 30.00 in 10.0 mi NNE 3.5 mph - 0.00 in Rain Light Rain
6:53 AM 57.0 °F 55.0 °F 93% 30.01 in 10.0 mi Calm Calm - 0.02 in Rain Light Rain
7:53 AM 59.0 °F 57.0 °F 93% 30.04 in 10.0 mi Calm Calm - 0.01 in   Overcast
8:53 AM 60.1 °F 57.9 °F 93% 30.05 in 10.0 mi Calm Calm - N/A   Overcast
9:28 AM 57.9 °F 55.9 °F 93% 30.04 in 9.0 mi NNE 6.9 mph - 0.06 in Rain , Thunderstorm Light Rain
9:53 AM 57.9 °F 57.0 °F 97% 30.05 in 4.0 mi East 3.5 mph - 0.08 in Rain , Thunderstorm Rain
10:53 AM 63.0 °F 60.1 °F 90% 30.04 in 3.0 mi NNW 10.4 mph - 0.00 in Rain Light Rain
11:39 AM 61.0 °F 59.0 °F 93% 30.05 in 10.0 mi North 9.2 mph - 0.01 in   Overcast
11:53 AM 61.0 °F 59.0 °F 93% 30.04 in 10.0 mi North 6.9 mph - 0.01 in   Overcast
12:25 PM 62.1 °F 59.0 °F 90% 30.03 in 10.0 mi NNE 4.6 mph - N/A   Overcast
12:53 PM 61.0 °F 59.0 °F 93% 30.02 in 7.0 mi Calm Calm - 0.01 in Rain Rain
1:53 PM 62.1 °F 60.1 °F 93% 29.99 in 3.0 mi Calm Calm - 0.11 in Rain Rain
2:53 PM 61.0 °F 60.1 °F 97% 29.98 in 6.0 mi Calm Calm - 0.04 in Fog , Rain Rain
3:51 PM 62.6 °F 60.8 °F 94% 29.98 in 3.0 mi Calm Calm - 0.15 in Rain Rain
3:53 PM 62.1 °F 60.1 °F 93% 29.98 in 3.0 mi ESE 3.5 mph - 0.15 in Rain Light Rain
4:53 PM 63.0 °F 61.0 °F 93% 29.99 in 10.0 mi Calm Calm - 0.00 in   Overcast
5:53 PM 62.1 °F 61.0 °F 96% 29.98 in 5.0 mi Calm Calm - N/A   Overcast
6:16 PM 62.1 °F 61.0 °F 96% 29.99 in 3.0 mi SSE 3.5 mph - N/A   Overcast
6:44 PM 62.1 °F 61.0 °F 96% 30.00 in 1.8 mi ESE 4.6 mph - N/A   Overcast
6:53 PM 60.1 °F 59.0 °F 96% 30.00 in 0.8 mi ENE 3.5 mph - N/A   Overcast
7:04 PM 61.0 °F 60.1 °F 97% 30.00 in 1.0 mi Calm Calm - 0.00 in Rain Light Rain
7:53 PM 61.0 °F 60.1 °F 97% 30.02 in 0.8 mi Calm Calm - 0.00 in   Mist
8:01 PM 61.0 °F 60.1 °F 97% 30.02 in 1.5 mi Calm Calm - N/A   Overcast
8:26 PM 61.0 °F 60.1 °F 97% 30.03 in 3.0 mi NW 3.5 mph - N/A   Overcast
8:47 PM 62.6 °F 60.8 °F 94% 30.04 in 1.8 mi Calm Calm - N/A   Overcast
8:53 PM 62.1 °F 61.0 °F 96% 30.04 in 1.2 mi Calm Calm - N/A   Overcast
9:28 PM 62.1 °F 61.0 °F 96% 30.05 in 3.0 mi NW 3.5 mph - N/A   Overcast
9:53 PM 62.1 °F 61.0 °F 96% 30.06 in 4.0 mi NW 3.5 mph - N/A   Overcast
10:38 PM 62.1 °F 61.0 °F 96% 30.06 in 2.5 mi Calm Calm - N/A   Overcast
10:53 PM 61.0 °F 60.1 °F 97% 30.05 in 1.0 mi ENE 3.5 mph - N/A   Overcast
11:00 PM 61.0 °F 60.1 °F 97% 30.04 in 0.5 mi ESE 3.5 mph - N/A Fog Fog
11:53 PM 61.0 °F 60.1 °F 97% 30.04 in 0.2 mi SE 5.8 mph - N/A Fog Fog